Fort Worth NAS, TX

2:06 PM CDT on June 23, 2017 (GMT -0500)
Fort Worth Naval Air Station Jrb

Weather History for KNFW - October, 2013

Change the Weather History Date:

Sunday, October 20, 2013

  Actual Average Record
Temperature  
Mean Temperature 60 °F -  
Max Temperature 73 °F 74 °F 91 °F (2007)
Min Temperature 46 °F 55 °F 42 °F (2006)
Degree Days  
Heating Degree Days 6    
Growing Degree Days 10 (Base 50)    
Moisture  
Dew Point 40 °F    
Average Humidity 50    
Maximum Humidity 73    
Minimum Humidity 29    
Precipitation  
Precipitation 0.00 in - - ()
Sea Level Pressure  
Sea Level Pressure 29.98 in    
Wind  
Wind Speed 6 mph (SSE)    
Max Wind Speed 18 mph    
Max Gust Speed 23 mph    
Visibility 10 miles    
Events      
Averages and records for this station are not official NWS values.
T = Trace of Precipitation, MM = Missing Value Source: NWS Daily Summary

Daily Weather History Graph

Daily Weather History Graph

Search for Another Location

Airport or City:

Trip Planner

Search our weather history database for the weather conditions in past years. The results will help you decide how hot, cold, wet, or windy it might be!

Date:

Astronomy

Oct. 20, 2013 Rise Set
Actual Time 7:37 AM CDT 6:50 PM CDT
Civil Twilight 7:12 AM CDT 7:15 PM CDT
Nautical Twilight 6:44 AM CDT 7:44 PM CDT
Astronomical Twilight 6:15 AM CDT 8:12 PM CDT
Moon 8:06 PM CDT (10/20) 9:11 AM CDT (10/20)
Length of Visible Light 12h 02m
Length of Day
11h 12m
Full, 97% of the Moon is Illuminated
Oct 20
Full
Oct 26
Last Quarter
Nov 3
New
Nov 9
First Quarter
Nov 17
Full

Hourly Weather History & Observations

Time (CDT) Temp. Dew Point Humidity Pressure Visibility Wind Dir Wind Speed Gust Speed Precip Events Conditions
12:52 AM 52.0 °F 37.0 °F 57% 30.07 in 10.0 mi South 5.8 mph - N/A   Clear
1:52 AM 52.0 °F 37.9 °F 59% 30.05 in 10.0 mi Calm Calm - N/A   Clear
2:52 AM 51.1 °F 37.9 °F 61% 30.04 in 10.0 mi Calm Calm - N/A   Clear
3:52 AM 51.1 °F 37.9 °F 61% 30.04 in 10.0 mi Calm Calm - N/A   Clear
4:52 AM 50.0 °F 37.9 °F 63% 30.03 in 10.0 mi Calm Calm - N/A   Clear
5:52 AM 46.0 °F 37.9 °F 73% 30.04 in 10.0 mi Calm Calm - N/A   Clear
6:52 AM 46.0 °F 37.9 °F 73% 30.04 in 10.0 mi Calm Calm - N/A   Clear
7:52 AM 48.0 °F 39.0 °F 71% 30.03 in 10.0 mi Calm Calm - N/A   Clear
8:09 AM 48.2 °F 39.2 °F 71% 30.08 in 10.0 mi Calm Calm - N/A   Clear
8:52 AM 52.0 °F 42.1 °F 69% 30.04 in 10.0 mi South 6.9 mph - N/A   Partly Cloudy
9:52 AM 57.9 °F 42.1 °F 56% 30.05 in 10.0 mi South 17.3 mph - N/A   Scattered Clouds
10:52 AM 64.0 °F 39.9 °F 41% 30.04 in 10.0 mi South 18.4 mph - N/A   Scattered Clouds
11:52 AM 66.9 °F 41.0 °F 39% 30.02 in 10.0 mi South 12.7 mph - N/A   Clear
12:52 PM 70.0 °F 39.9 °F 33% 29.99 in 10.0 mi SSE 13.8 mph - N/A   Clear
1:52 PM 73.0 °F 41.0 °F 31% 29.94 in 10.0 mi SSE 18.4 mph 23.0 mph N/A   Clear
2:52 PM 73.9 °F 39.9 °F 29% 29.91 in 10.0 mi SSE 16.1 mph - N/A   Clear
3:52 PM 73.9 °F 39.9 °F 29% 29.89 in 10.0 mi SSE 12.7 mph - N/A   Clear
4:52 PM 73.9 °F 41.0 °F 30% 29.88 in 10.0 mi SSE 16.1 mph - N/A   Clear
5:52 PM 73.0 °F 42.1 °F 33% 29.88 in 10.0 mi South 15.0 mph - N/A   Clear
6:52 PM 70.0 °F 43.0 °F 38% 29.87 in 10.0 mi SSE 10.4 mph - N/A   Clear
7:52 PM 68.0 °F 42.1 °F 39% 29.88 in 10.0 mi SE 11.5 mph - N/A   Clear
8:52 PM 66.0 °F 42.1 °F 42% 29.89 in 10.0 mi SE 9.2 mph - N/A   Clear
9:52 PM 64.0 °F 43.0 °F 46% 29.89 in 10.0 mi SSE 9.2 mph - N/A   Clear
10:52 PM 64.0 °F 43.0 °F 46% 29.90 in 10.0 mi SSE 6.9 mph - N/A   Clear
11:52 PM 64.0 °F 44.1 °F 48% 29.89 in 10.0 mi South 10.4 mph - N/A   Clear